Temp
43 43 42 42 42 43 42 41 41 40 40 39 38 38 37 37 37 37 36 36 34 34 36 35 35 36 36 37 36 36 35 35 30 35 38 40 39 39 40 41 42 43 45
43 42 42 42 42 42 41 41 40 39 38 37 36 36 35 35 34 34 33 33 32 32 33 33 33 34 32 34 34 33 33 34 31 28 33 34 35 37 38 38 40 42 42
42 42 41 41 41 41 40 39 38 37 37 35 34 33 33 32 32 32 32 32 32 32 31 31 31 31 29 30 31 30 31 31 30 29 28 32 33 35 35 36 37 38 41
41 41 40 41 41 40 39 37 36 35 34 33 32 32 31 31 31 32 31 31 31 31 31 30 30 29 28 28 27 27 28 27 27 27 28 28 29 32 32 32 33 36 36
40 40 40 40 40 38 36 34 33 32 33 32 30 29 29 29 31 30 30 30 29 29 29 29 29 28 26 26 26 26 25 24 23 23 23 25 26 27 26 29 28 30 32
41 39 41 38 35 32 32 30 30 29 28 27 26 25 25 28 25 26 28 28 27 27 26 27 28 26 27 26 26 26 26 22 20 21 22 21 23 26 27 27 26 25 23
35 34 33 33 31 31 30 28 27 27 27 25 25 24 23 24 23 25 26 26 26 26 25 24 25 26 25 25 25 25 25 26 27 25 21 22 23 26 27 25 25 25 25
33 32 31 31 30 28 26 26 26 25 24 24 23 22 22 23 22 23 24 25 25 25 24 24 23 24 25 24 24 23 24 25 25 27 26 27 27 28 27 27 25 25 26
33 32 31 30 27 26 23 24 24 23 22 21 20 19 17 19 19 22 23 23 23 22 24 24 24 23 24 26 25 23 24 25 29 30 31 31 32 32 31 28 24 23 22
33 33 31 28 25 23 23 21 22 20 20 20 19 18 16 14 18 20 22 23 21 22 23 25 25 26 27 28 25 24 21 24 25 25 26 27 28 28 29 29 27 21 21
30 28 26 25 22 22 21 20 18 17 17 15 14 16 14 14 16 19 21 22 22 22 23 24 25 26 27 28 28 25 23 26 23 23 24 25 26 26 28 29 28 26 22
26 24 22 19 20 18 16 16 14 14 12 13 13 15 18 16 16 20 22 24 25 22 22 24 25 26 25 26 25 24 24 23 20 19 19 19 21 22 24 26 27 28 28
21 19 17 16 17 15 13 13 14 13 14 16 16 17 17 18 19 19 21 22 24 23 24 25 23 23 21 20 20 20 18 17 16 14 14 16 19 21 22 22 24 25 25
19 17 15 13 14 13 15 15 15 15 15 15 15 15 16 17 18 20 21 21 22 24 24 19 19 17 17 17 15 16 15 15 13 12 13 16 18 18 18 20 19 20 20
18 16 17 16 13 15 15 17 16 17 17 15 14 14 15 16 18 22 23 22 23 23 18 15 13 12 11 12 13 13 13 13 12 13 12 12 14 15 16 19 20 19 17
17 17 18 18 16 16 16 15 17 18 19 20 22 22 21 21 24 23 24 24 24 20 15 10 9 9 9 9 9 10 12 11 12 11 11 12 12 13 14 16 18 18 17
19 18 17 15 16 15 14 13 13 15 16 17 18 19 20 21 21 21 22 23 17 14 9 7 6 7 7 8 9 9 9 11 11 11 11 11 12 13 13 13 15 16 17
13 11 15 15 15 14 13 12 11 10 9 11 12 12 14 16 19 19 20 18 10 8 5 4 5 6 6 7 8 8 8 9 9 10 10 10 11 12 12 12 13 13 15
11 12 11 12 11 10 10 9 8 8 6 6 7 9 9 10 13 16 14 8 5 3 4 4 5 5 5 6 6 7 7 7 8 8 9 10 12 12 12 12 13 12 13
6 4 5 8 8 6 7 6 6 5 5 4 5 6 7 3 5 7 6 4 3 2 3 2 3 3 4 4 5 5 5 6 7 8 9 10 11 13 11 11 12 12 13
6 5 2 4 4 4 4 3 4 4 3 3 4 6 8 5 8 7 5 4 3 2 2 2 2 2 2 3 3 4 4 5 6 7 8 10 10 11 12 12 12 13 13
2 2 1 1 2 2 2 2 2 2 2 2 3 5 8 7 7 5 4 3 2 1 1 0 0 1 1 1 2 2 2 2 4 6 7 8 9 11 11 11 11 12 13
0 0 1 0 -0 -1 -1 -0 -0 0 0 1 1 1 2 2 2 2 2 1 -0 -1 -0 -1 -1 -1 1 1 2 2 1 1 3 4 4 6 9 11 10 10 11 11 12
1 0 0 1 0 0 -0 -0 1 -1 -1 -0 0 0 0 1 1 1 -1 -1 -2 -2 -2 -3 -3 -3 -2 -2 0 1 2 2 3 3 4 7 10 10 9 9 10 10 11
-1 -0 -1 -1 -2 -2 -2 -1 -1 -1 -0 -0 -0 0 1 0 -1 -1 -2 -3 -5 -5 -4 -4 -3 -3 -3 -4 -4 -3 -2 -1 0 4 9 11 10 8 9 9 9 9 10
-1 -2 -2 -2 -2 -2 -1 -2 -1 -0 -1 0 1 1 0 -1 -2 -2 -4 -5 -6 -6 -5 -4 -4 -5 -5 -3 -2 -1 0 4 7 11 11 12 9 9 9 9 8 9 9
MSLP
1028.58 1028.88 1029.16 1029.72 1030.20 1030.28 1030.47 1030.90 1031.13 1031.45 1031.66 1031.69 1032.05 1032.15 1032.03 1032.03 1032.06 1032.03 1031.94 1031.80 1031.74 1031.50 1031.23 1030.91 1030.65 1030.50 1030.19 1029.82 1029.52 1029.23 1028.76 1028.36 1027.11 1025.34 1025.19 1024.65 1023.66 1023.07 1022.39 1022.13 1021.57 1020.83 1020.04
1028.33 1028.78 1029.01 1029.31 1029.84 1030.19 1030.60 1030.83 1031.06 1031.24 1031.80 1032.17 1032.20 1032.17 1032.19 1032.29 1032.29 1032.23 1032.10 1032.01 1031.78 1031.40 1031.22 1030.92 1030.60 1030.43 1030.27 1029.97 1029.57 1029.13 1028.68 1028.24 1027.56 1025.83 1024.93 1024.54 1024.01 1023.35 1022.39 1021.53 1020.87 1020.37 1019.66
1028.24 1028.55 1028.96 1029.39 1029.46 1029.98 1030.60 1030.92 1031.28 1031.47 1031.93 1032.15 1032.30 1032.35 1032.41 1032.45 1032.32 1032.26 1032.20 1031.97 1031.71 1031.44 1031.19 1030.92 1030.63 1030.45 1030.23 1029.94 1029.65 1029.07 1028.54 1028.03 1027.53 1026.47 1024.46 1024.62 1023.92 1023.34 1022.31 1021.53 1020.59 1019.62 1018.94
1027.76 1028.17 1028.50 1028.99 1029.18 1029.56 1030.27 1030.99 1031.43 1031.78 1032.06 1032.28 1032.18 1032.56 1032.56 1032.45 1032.32 1032.08 1032.07 1031.78 1031.52 1031.26 1031.05 1030.81 1030.56 1030.35 1030.16 1029.93 1029.58 1029.07 1028.43 1027.80 1027.25 1026.47 1025.22 1024.23 1023.88 1023.22 1022.50 1021.30 1019.93 1019.57 1018.63
1027.30 1027.70 1027.95 1028.65 1029.12 1029.52 1030.17 1030.90 1031.60 1032.06 1032.04 1032.29 1032.34 1032.57 1032.53 1032.34 1031.97 1031.96 1031.65 1031.42 1031.18 1030.87 1030.65 1030.49 1030.27 1030.18 1030.35 1030.08 1029.56 1028.80 1028.39 1027.78 1027.18 1026.44 1025.45 1024.35 1023.45 1022.81 1022.36 1021.75 1020.75 1019.76 1018.64
1026.58 1027.13 1027.61 1028.32 1029.09 1029.69 1030.57 1031.36 1031.51 1031.72 1032.19 1032.41 1032.55 1032.53 1032.47 1032.10 1032.16 1031.93 1031.58 1031.19 1030.94 1030.62 1030.32 1030.12 1030.00 1029.92 1029.51 1029.36 1029.08 1028.70 1028.35 1027.66 1026.93 1026.30 1025.37 1024.25 1023.29 1022.74 1022.09 1021.50 1020.91 1020.04 1018.36
1026.16 1026.95 1027.64 1028.29 1028.89 1029.62 1030.39 1031.08 1031.76 1031.75 1031.92 1032.08 1032.30 1032.36 1032.29 1032.05 1031.98 1031.54 1031.34 1030.96 1030.59 1030.29 1030.15 1029.83 1029.49 1029.23 1029.07 1028.69 1028.37 1027.96 1027.42 1027.03 1026.34 1025.63 1024.67 1023.98 1022.87 1022.37 1021.67 1020.97 1020.51 1019.87 1018.87
1025.73 1026.58 1027.27 1027.92 1028.53 1029.34 1030.32 1030.71 1031.28 1031.56 1031.66 1031.86 1032.02 1032.09 1032.05 1031.64 1031.53 1031.27 1030.97 1030.43 1030.10 1029.92 1029.74 1029.44 1029.00 1028.57 1028.31 1028.02 1027.35 1026.62 1026.06 1025.57 1025.18 1024.47 1023.66 1022.72 1022.15 1021.57 1021.04 1020.24 1019.53 1018.87 1018.18
1025.27 1025.82 1026.59 1027.29 1028.14 1028.94 1029.80 1030.42 1030.97 1031.24 1031.38 1031.64 1031.76 1031.88 1031.92 1031.43 1031.32 1030.91 1030.54 1030.03 1029.57 1029.33 1029.11 1028.74 1028.38 1027.98 1027.65 1026.91 1025.97 1025.19 1024.46 1023.77 1023.11 1022.45 1021.77 1021.03 1020.37 1019.86 1019.44 1018.92 1018.06 1017.69 1016.43
1024.71 1025.12 1025.98 1026.71 1027.55 1028.42 1029.28 1030.05 1030.56 1030.89 1031.03 1031.34 1031.41 1031.52 1031.58 1031.30 1030.97 1030.66 1030.13 1029.56 1029.00 1028.55 1028.23 1027.74 1027.39 1026.84 1026.36 1025.68 1024.97 1024.15 1022.99 1022.22 1021.75 1021.13 1020.59 1020.02 1019.56 1019.03 1018.58 1018.18 1017.60 1016.85 1016.10
1024.30 1024.97 1025.76 1026.58 1027.24 1028.04 1028.97 1029.77 1030.38 1030.63 1030.82 1031.06 1031.08 1030.98 1031.00 1030.97 1030.62 1030.15 1029.59 1028.93 1028.28 1027.72 1027.25 1026.74 1026.40 1026.07 1025.34 1024.64 1023.91 1023.35 1022.74 1021.93 1021.42 1020.91 1020.11 1019.47 1018.78 1018.16 1017.54 1017.00 1016.73 1016.37 1015.59
1024.23 1024.91 1025.66 1026.40 1027.16 1028.04 1028.80 1029.54 1030.04 1030.35 1030.53 1030.48 1030.43 1030.19 1030.00 1030.08 1029.95 1029.30 1028.80 1028.17 1027.62 1027.18 1026.67 1026.15 1025.71 1025.26 1024.90 1024.29 1023.71 1023.27 1022.61 1021.99 1021.49 1020.85 1020.02 1019.18 1018.45 1017.72 1017.17 1016.64 1016.08 1015.42 1014.83
1024.40 1024.90 1025.79 1026.61 1027.25 1027.93 1028.59 1029.05 1029.37 1029.66 1029.60 1029.36 1029.29 1029.01 1028.79 1028.93 1028.81 1028.53 1028.07 1027.68 1027.04 1026.53 1025.99 1025.38 1025.39 1025.25 1025.12 1024.58 1023.95 1023.42 1022.76 1022.30 1021.67 1020.88 1020.07 1019.24 1018.54 1017.82 1017.12 1016.40 1015.66 1014.93 1014.16
1024.03 1024.87 1025.81 1026.47 1027.04 1027.68 1028.05 1028.24 1028.36 1028.34 1028.36 1028.37 1028.33 1028.10 1027.88 1027.76 1027.63 1027.51 1027.17 1026.81 1026.39 1025.73 1025.26 1025.68 1025.68 1025.61 1025.24 1024.77 1024.12 1023.49 1023.07 1022.56 1022.02 1021.17 1020.15 1019.26 1018.45 1017.54 1016.63 1015.92 1015.06 1014.21 1013.37
1023.89 1024.64 1025.30 1025.86 1026.54 1026.89 1027.26 1027.31 1027.49 1027.46 1027.51 1027.39 1027.34 1027.27 1027.15 1026.68 1026.47 1026.17 1025.83 1025.66 1025.36 1025.08 1025.34 1025.74 1025.69 1025.55 1025.12 1024.56 1024.02 1023.58 1023.05 1022.43 1021.73 1020.96 1020.14 1019.23 1018.17 1017.21 1016.04 1015.23 1014.29 1013.40 1012.55
1023.59 1024.24 1024.64 1025.19 1025.85 1026.25 1026.51 1026.80 1027.01 1026.99 1027.00 1026.75 1026.31 1025.89 1025.81 1025.70 1025.20 1025.21 1025.17 1024.96 1024.68 1025.00 1025.38 1025.85 1025.83 1025.65 1025.22 1024.59 1024.00 1023.38 1022.84 1022.16 1021.45 1020.85 1020.06 1019.04 1017.93 1016.85 1015.75 1014.75 1013.86 1012.73 1011.64
1023.24 1023.84 1024.36 1024.91 1025.30 1025.64 1026.02 1026.24 1026.24 1026.41 1026.67 1026.49 1026.23 1025.86 1025.52 1025.28 1025.16 1024.88 1024.64 1024.50 1025.14 1025.48 1025.85 1025.98 1025.93 1025.65 1025.18 1024.60 1024.06 1023.42 1022.55 1021.88 1021.40 1020.46 1019.62 1018.61 1017.61 1016.49 1015.47 1014.29 1013.29 1012.27 1010.86
1023.52 1023.99 1024.17 1024.58 1024.98 1025.39 1025.71 1025.79 1025.85 1025.95 1026.06 1026.08 1026.48 1026.52 1025.84 1025.36 1024.98 1024.72 1024.44 1024.34 1025.41 1025.90 1026.12 1026.11 1025.89 1025.54 1024.98 1024.46 1023.97 1023.32 1022.52 1021.76 1020.94 1020.09 1019.20 1018.30 1017.22 1016.12 1014.94 1013.88 1012.86 1011.90 1010.66
1023.98 1024.23 1024.67 1024.98 1025.38 1025.66 1025.78 1026.04 1025.98 1025.81 1025.79 1025.92 1026.07 1026.08 1026.47 1025.77 1025.32 1024.87 1024.85 1025.32 1025.72 1025.87 1025.93 1025.88 1025.68 1025.32 1024.82 1024.38 1023.82 1023.16 1022.45 1021.54 1020.78 1019.86 1018.78 1017.79 1016.64 1015.61 1014.42 1013.49 1012.44 1011.41 1010.32
1024.72 1025.05 1025.21 1025.29 1025.44 1025.72 1025.81 1025.87 1025.98 1025.88 1025.77 1025.58 1025.42 1025.44 1026.00 1026.31 1025.41 1025.08 1025.31 1025.52 1025.62 1025.62 1025.61 1025.53 1025.33 1025.03 1024.58 1024.12 1023.49 1022.79 1021.95 1021.18 1020.39 1019.47 1018.38 1017.40 1016.26 1015.03 1014.00 1012.98 1011.92 1010.73 1009.47
1025.00 1025.26 1025.53 1025.52 1025.57 1025.52 1025.65 1025.69 1025.73 1025.66 1025.55 1025.36 1025.07 1025.00 1025.05 1025.19 1024.62 1024.64 1024.98 1025.12 1025.15 1025.19 1025.18 1025.07 1024.79 1024.48 1024.08 1023.61 1023.08 1022.40 1021.63 1020.84 1020.03 1019.10 1018.03 1016.85 1015.92 1014.52 1013.52 1012.51 1011.38 1010.17 1008.93
1025.26 1025.36 1025.52 1025.50 1025.45 1025.47 1025.50 1025.44 1025.39 1025.21 1024.92 1024.75 1024.52 1024.38 1024.24 1024.31 1024.17 1024.35 1024.54 1024.74 1024.86 1024.89 1024.90 1024.75 1024.33 1023.84 1023.49 1023.13 1022.65 1022.02 1021.25 1020.49 1019.61 1018.69 1017.66 1016.55 1015.37 1014.04 1013.01 1011.95 1010.86 1009.69 1008.47
1025.26 1025.27 1025.32 1025.41 1025.40 1025.37 1025.41 1025.31 1025.10 1024.89 1024.61 1024.45 1024.30 1024.06 1023.96 1023.98 1024.00 1024.04 1024.17 1024.35 1024.49 1024.40 1024.25 1024.07 1023.77 1023.27 1022.88 1022.52 1022.07 1021.56 1020.87 1020.00 1019.23 1018.54 1017.58 1016.27 1014.86 1013.67 1012.70 1011.60 1010.53 1009.46 1008.37
1025.05 1024.96 1024.95 1024.97 1024.94 1024.90 1024.89 1024.82 1024.66 1024.45 1024.22 1023.95 1023.80 1023.67 1023.57 1023.51 1023.53 1023.54 1023.78 1023.87 1023.90 1023.73 1023.52 1023.32 1023.05 1022.60 1022.20 1021.83 1021.33 1020.75 1020.08 1019.34 1018.74 1017.99 1017.11 1015.78 1014.42 1013.51 1012.62 1011.55 1010.51 1009.52 1008.48
1024.87 1024.69 1024.64 1024.62 1024.61 1024.60 1024.58 1024.40 1024.15 1023.87 1023.64 1023.43 1023.20 1023.08 1022.99 1023.00 1023.04 1023.06 1023.15 1023.22 1023.23 1023.13 1022.77 1022.57 1022.13 1021.66 1021.33 1020.91 1020.49 1019.89 1019.16 1018.42 1017.90 1016.91 1015.79 1014.72 1014.09 1013.33 1012.43 1011.56 1010.61 1009.59 1008.70
1024.72 1024.51 1024.41 1024.42 1024.41 1024.27 1024.10 1023.87 1023.60 1023.35 1023.07 1022.81 1022.60 1022.51 1022.52 1022.54 1022.58 1022.51 1022.48 1022.48 1022.43 1022.20 1021.96 1021.62 1021.14 1020.88 1020.53 1020.03 1019.37 1018.78 1018.16 1017.32 1016.44 1015.27 1014.64 1014.10 1013.59 1012.92 1012.27 1011.47 1010.68 1009.87 1009.09
Wind_Speed
11 10 10 9 9 8 7 7 7 6 5 5 5 4 4 5 5 5 5 5 6 7 7 8 9 9 7 8 8 8 9 10 13 13 12 14 19 17 14 13 13 15 13
11 11 11 10 9 8 7 7 6 6 4 3 3 3 3 4 5 5 5 5 7 8 9 9 10 8 10 10 8 12 11 12 12 19 15 13 15 17 17 18 13 12 14
12 12 11 10 9 8 7 6 5 5 4 3 1 0 1 3 4 4 5 7 7 8 8 10 10 10 11 9 11 11 11 11 12 13 16 12 12 12 15 15 16 14 12
13 12 12 11 10 9 7 6 5 4 4 4 4 3 3 4 4 4 6 7 8 8 9 9 10 11 11 12 12 13 12 12 12 12 13 13 13 13 12 13 13 11 12
13 13 13 11 9 9 8 7 5 5 5 4 4 4 4 5 3 6 6 8 9 10 9 9 10 11 16 15 11 13 14 12 12 12 13 13 13 12 13 11 13 13 14
14 14 12 10 9 8 8 7 6 6 5 5 5 5 5 4 4 8 9 8 9 10 10 10 10 12 13 17 19 20 18 13 14 11 12 15 17 14 12 11 12 13 16
11 8 8 9 9 9 9 8 7 7 5 5 6 5 6 5 6 9 10 8 9 9 10 10 10 9 12 12 16 20 20 21 22 16 16 16 18 17 16 16 15 14 14
10 8 9 9 9 10 9 9 7 6 6 5 6 6 7 5 8 10 11 9 8 10 10 11 12 13 13 14 16 16 17 16 16 14 17 18 18 17 17 17 17 17 15
10 11 10 11 10 10 9 9 7 6 6 6 6 6 7 6 8 10 10 8 9 10 10 11 12 14 18 22 17 16 17 16 19 28 30 32 32 32 27 15 13 14 14
10 10 9 10 10 10 9 8 6 5 6 5 6 7 7 7 9 10 10 7 9 8 10 11 14 16 23 25 17 16 18 16 14 15 13 15 19 19 27 19 14 15 15
6 7 8 9 9 9 8 6 6 6 5 5 7 7 7 7 7 10 11 8 7 9 10 10 10 20 25 26 26 15 17 22 20 16 13 12 13 12 11 12 14 13 14
7 8 9 9 8 7 7 6 5 5 6 7 7 7 5 6 8 9 11 12 13 9 11 10 11 19 23 29 24 26 27 23 11 10 10 11 11 11 11 12 14 14 13
8 8 8 8 7 7 7 7 6 7 6 6 6 6 5 4 5 10 12 13 14 10 9 15 17 23 22 18 20 23 17 9 10 10 10 11 11 11 15 14 14 16 16
8 8 8 9 9 7 6 6 7 7 7 6 6 6 5 5 5 5 6 7 11 11 11 6 12 14 14 14 11 11 9 9 10 10 11 11 11 11 11 10 11 11 12
8 8 9 8 9 8 8 7 7 8 8 6 6 5 6 6 5 9 10 8 8 9 6 6 7 8 8 8 8 9 9 9 9 9 10 11 11 11 11 11 11 10 12
9 8 8 7 7 6 6 6 13 14 13 16 16 12 7 14 15 12 16 16 16 12 6 6 7 7 8 9 9 10 9 10 10 10 10 10 11 11 12 12 11 11 12
8 7 6 6 6 6 6 6 6 6 10 12 14 13 13 13 13 15 14 16 8 7 3 5 6 7 8 8 9 9 11 10 11 10 10 11 11 11 13 12 11 12 12
5 3 5 5 5 6 6 6 5 5 6 5 6 8 9 12 14 11 14 8 5 3 3 5 6 7 7 8 9 9 10 10 10 10 10 11 11 12 12 12 12 13 13
4 3 3 3 4 4 4 5 5 6 6 5 5 6 5 7 10 13 5 3 4 4 4 6 6 7 7 8 9 9 10 10 11 11 11 11 11 11 12 12 13 17 17
2 2 3 3 4 5 5 5 6 6 6 6 5 6 4 3 4 4 3 4 5 5 5 6 7 7 7 8 9 9 9 10 10 10 10 11 11 11 12 13 12 13 13
2 2 3 3 4 4 4 6 6 6 6 7 7 6 11 8 7 5 5 5 5 5 6 6 7 7 7 8 8 9 9 10 10 10 10 11 12 12 11 11 12 12 13
2 2 3 4 4 5 5 6 6 7 7 8 7 7 11 7 6 6 6 6 6 6 6 7 7 7 7 8 8 9 9 10 10 10 11 11 12 11 11 11 11 11 12
2 3 3 3 4 4 5 6 6 7 7 7 7 6 5 5 6 6 6 6 6 6 6 6 8 7 7 7 8 9 9 10 10 10 11 12 12 11 11 11 11 11 10
3 3 3 3 4 4 5 6 7 7 8 7 6 6 6 6 6 7 7 6 6 6 6 7 7 9 9 8 8 9 9 10 9 11 15 13 10 11 10 10 10 12 10
1 2 2 3 4 5 6 7 7 7 7 7 7 7 7 7 7 7 7 6 6 6 8 7 7 9 11 12 12 15 14 17 14 16 11 9 10 11 9 9 9 9 11
2 3 3 3 5 5 6 7 7 7 8 7 7 7 7 7 7 7 6 7 7 7 8 8 9 12 13 12 13 14 15 18 16 20 5 6 7 7 7 9 11 8 9
Wind_Direction
167 159 151 155 159 146 138 141 131 125 111 83 63 53 40 20 10 352 350 341 335 329 323 325 320 322 312 311 304 295 289 286 284 287 290 295 299 302 300 301 297 293 290
172 169 169 164 162 158 152 138 131 121 114 102 85 58 26 359 348 334 328 322 320 317 319 317 314 318 311 307 301 298 294 292 288 290 291 296 292 299 301 301 296 296 286
181 179 175 178 175 167 156 144 139 145 158 143 128 57 315 312 312 299 298 305 303 303 303 305 305 307 303 303 301 298 297 297 294 291 297 300 296 292 292 296 299 296 282
188 188 187 188 184 174 164 160 166 180 195 205 200 228 249 279 280 276 292 293 292 294 295 297 300 299 299 303 300 297 295 295 294 291 293 300 300 300 294 296 296 308 308
192 194 199 193 184 175 172 173 173 197 213 218 220 242 248 261 262 296 295 299 298 300 300 298 295 304 298 292 290 295 298 296 295 295 292 292 298 306 300 302 294 299 299
197 203 200 188 176 177 178 182 185 197 210 213 230 238 257 254 284 289 301 301 296 294 298 300 298 296 292 299 294 292 291 291 285 291 294 287 293 297 297 296 296 293 299
192 192 178 177 178 183 182 183 201 210 213 224 237 240 250 259 268 295 299 292 293 292 295 298 299 299 299 297 298 293 288 282 278 282 284 284 287 288 293 290 283 281 286
192 191 188 184 185 180 186 194 203 209 218 227 236 244 254 261 280 295 298 292 289 288 293 296 296 299 301 303 294 285 279 277 273 270 266 268 270 274 271 273 275 273 269
199 202 193 187 186 184 192 196 203 213 221 230 233 242 257 272 286 294 298 294 288 290 291 290 295 298 296 292 292 291 286 276 270 270 270 273 275 278 277 279 278 281 281
204 203 189 183 182 183 188 192 198 214 229 231 243 250 257 271 284 287 290 283 287 294 297 293 285 292 301 299 294 289 283 286 291 287 287 290 284 277 276 273 276 275 279
163 163 173 182 177 177 175 184 192 213 240 239 253 254 255 254 266 279 284 285 290 295 298 302 302 301 300 302 306 310 306 307 310 299 294 294 292 288 283 276 264 264 270
168 172 173 165 168 169 172 179 197 215 235 245 251 264 240 247 253 276 287 289 294 298 295 298 297 310 320 315 314 310 309 313 309 298 294 293 293 294 296 297 293 283 266
166 170 162 159 168 167 179 193 206 213 234 246 245 257 259 250 262 276 289 290 295 299 291 297 330 325 319 312 313 319 324 314 309 304 302 297 298 299 299 293 288 282 277
172 167 164 173 180 186 198 205 212 216 225 234 240 252 259 261 269 271 282 285 275 287 303 339 320 322 316 311 315 326 322 317 313 303 299 302 301 296 290 290 286 285 281
174 176 182 190 193 197 214 215 223 229 229 230 231 240 262 271 268 277 296 300 294 302 352 333 326 320 316 318 321 318 317 317 314 311 307 303 299 297 294 297 287 279 274
185 187 190 189 192 207 217 232 237 242 240 246 257 259 260 256 280 295 288 297 309 338 337 312 309 308 308 316 317 315 314 314 316 315 305 300 300 300 301 298 295 287 282
189 182 184 199 201 205 213 227 244 219 254 261 267 271 271 276 288 284 290 291 356 356 318 303 296 300 303 308 308 310 312 315 312 306 306 302 301 299 304 300 298 295 292
181 163 192 200 210 216 225 230 230 235 250 257 253 270 271 274 277 284 282 317 318 325 287 285 290 293 300 304 304 305 307 308 310 308 305 300 297 298 302 300 298 297 296
178 193 203 216 227 240 238 243 244 240 238 245 276 274 276 280 283 275 322 275 273 275 274 277 283 288 293 296 296 298 299 300 303 301 300 301 301 298 300 297 295 296 292
207 223 214 227 230 234 241 246 254 252 251 247 243 254 276 252 250 248 249 253 256 261 266 271 278 280 284 287 292 294 298 297 297 298 300 300 303 301 303 299 296 296 296
212 217 236 241 244 246 251 250 254 255 255 257 256 250 242 242 258 249 257 255 257 262 269 274 279 279 282 285 289 290 293 292 293 295 299 300 302 304 302 298 297 297 296
223 237 233 247 259 254 254 256 254 253 251 251 256 254 267 275 268 264 261 258 258 260 265 268 274 276 279 282 287 289 291 289 290 295 300 300 298 307 305 304 303 303 303
202 222 232 245 251 263 262 259 261 259 260 260 263 265 259 253 254 258 261 261 260 261 260 260 265 272 275 274 277 280 283 281 287 297 294 295 298 308 309 307 309 309 312
205 229 261 277 279 281 277 275 273 262 263 261 257 256 259 261 260 264 263 262 260 262 263 261 259 264 276 275 281 281 277 277 281 284 286 285 300 308 310 310 312 316 314
229 261 265 277 285 283 281 274 274 272 269 265 263 258 258 257 261 261 262 260 260 263 266 262 264 270 274 275 275 280 281 285 283 280 280 285 297 306 311 310 320 320 331
269 266 272 270 263 262 267 275 277 274 270 267 263 260 260 260 262 263 264 262 264 266 268 267 267 269 276 282 281 283 288 294 295 295 283 299 308 316 324 325 333 333 342